Location: Unspecified
(47.9110°N, 14.3980°E)
Time: 17:49:42
(UTC+00:00)

Terra - Pass Details

Date: 06 August 2020
Orbit: 701 x 703 km, 98.2° (Epoch: 25 September)

Event Time Altitude Azimuth Distance (km) Brightness Sun altitude
Exits shadow 22:11:59 17° 248° (WSW) 1,760 3.8 -24.5°
Maximum altitude 22:13:21 19° 269° (W) 1,664 3.9 -24.6°
Drops below altitude 10° 22:16:42 10° 314° (NW) 2,181 5.1 -24.7°
Sets 22:19:37 0° 333° (NNW) 3,105 6.4 -24.8°
